TimeEDT,TemperatureF,Dew PointF,Humidity,Sea Level PressureIn,VisibilityMPH,Wind Direction,Wind SpeedMPH,Gust SpeedMPH,PrecipitationIn,Events,Conditions,WindDirDegrees,DateUTC
12:53 AM,50.0,46.9,89,30.19,10.0,Calm,Calm,-,N/A,,Clear,0,2013-03-16 04:53:00
1:53 AM,50.0,46.9,89,30.18,10.0,South,3.5,-,N/A,,Clear,180,2013-03-16 05:53:00
2:53 AM,53.1,48.9,86,30.16,10.0,Calm,Calm,-,N/A,,Clear,0,2013-03-16 06:53:00
3:53 AM,48.9,45.0,86,30.14,10.0,Calm,Calm,-,N/A,,Clear,0,2013-03-16 07:53:00
4:53 AM,46.9,44.1,90,30.13,10.0,Calm,Calm,-,N/A,,Clear,0,2013-03-16 08:53:00
5:53 AM,48.9,44.1,83,30.12,10.0,South,5.8,-,N/A,,Clear,190,2013-03-16 09:53:00
6:53 AM,48.9,46.0,90,30.13,9.0,NW,3.5,-,N/A,,Clear,310,2013-03-16 10:53:00
7:53 AM,45.0,43.0,93,30.15,6.0,Calm,Calm,-,N/A,,Clear,0,2013-03-16 11:53:00
8:53 AM,50.0,48.9,96,30.16,10.0,Calm,Calm,-,N/A,,Clear,0,2013-03-16 12:53:00
9:53 AM,61.0,55.9,83,30.17,10.0,Calm,Calm,-,N/A,,Clear,0,2013-03-16 13:53:00
10:53 AM,69.1,55.9,63,30.16,10.0,SSW,10.4,20.7,N/A,,Clear,210,2013-03-16 14:53:00
11:53 AM,71.1,54.0,55,30.17,10.0,SW,16.1,23.0,N/A,,Scattered Clouds,230,2013-03-16 15:53:00
12:53 PM,72.0,54.0,53,30.16,10.0,SW,12.7,23.0,N/A,,Scattered Clouds,220,2013-03-16 16:53:00
1:53 PM,73.0,52.0,48,30.13,10.0,WSW,17.3,25.3,N/A,,Scattered Clouds,240,2013-03-16 17:53:00
2:53 PM,73.0,52.0,48,30.12,10.0,SW,18.4,27.6,N/A,,Clear,230,2013-03-16 18:53:00
3:53 PM,72.0,52.0,49,30.09,10.0,SW,17.3,-,N/A,,Mostly Cloudy,230,2013-03-16 19:53:00
4:53 PM,72.0,53.1,51,30.07,10.0,SSW,11.5,-,N/A,,Scattered Clouds,210,2013-03-16 20:53:00
5:53 PM,72.0,53.1,51,30.07,10.0,SW,11.5,19.6,N/A,,Clear,220,2013-03-16 21:53:00
6:53 PM,69.1,55.9,63,30.07,10.0,South,9.2,-,N/A,,Partly Cloudy,170,2013-03-16 22:53:00
7:53 PM,64.9,57.0,75,30.06,10.0,South,6.9,-,N/A,,Clear,180,2013-03-16 23:53:00
8:53 PM,63.0,57.0,81,30.07,10.0,SSE,4.6,-,N/A,,Clear,160,2013-03-17 00:53:00
9:53 PM,61.0,57.0,87,30.09,10.0,SSE,4.6,-,N/A,,Clear,150,2013-03-17 01:53:00
10:53 PM,61.0,57.0,87,30.09,10.0,SE,5.8,-,N/A,,Clear,140,2013-03-17 02:53:00
11:53 PM,61.0,57.0,87,30.09,10.0,SE,5.8,-,N/A,,Clear,140,2013-03-17 03:53:00